GEESAT 6-01

导读

GEESAT 6-01是中国于2025年9月24日成功发射的国产卫星,属于GEESAT系列卫星的6组首发星,该系列已在吉利星座等项目中完成多星部署。GEESAT系列卫星多服务于航天科研、天地互联相关领域,GEESAT 6-01入轨后,将进一步提升星座覆盖能力,助力天地一体化网络构建,推动商业航天应用场景拓展,目前已在轨稳定运行超5个月。

基本信息
目录编号:
65713
目录名称:
GEESAT 6-01
国际标识:
2025-214B
轨道中心:
EARTH
卫星名称:
GEESAT 6-01
卫星全名:
GEESAT 6-01
卫星状态:
在轨 (已飞行306 天)
发射日期:
2025-09-24 UTC
国别 :
中国 (CN)
星等 :
--
轨道信息
数据来源 国际轨道数据 AOE轨道数据
星历时间 2026-07-27T11:22:14+0800
18小时前
查看轨道信息
2026-07-27T23:00:00+0800
7小时前
查看轨道信息
半长轴 6996.621km 6996.615km
偏心率 0.0012175 0.001216
轨道倾角 49.987° 49.985°
近地点辐角 20.738° 22.625°
升交点赤经 123.473° 121.227°
平近点角 339.405° 47.124°
近地点 609.965km 609.97km
远地点 627.003km 626.986km
周期 97.072分钟 97.071分钟
每日圈数 14.83441 14.834428
详细信息
使用方式:
暂无
2D轨道图
3D轨道图
轨道高度分析图
轨道倾角分析图
轨道综合分析图
查看轨道综合分析图